Regional Weather Roundup
Issued by NWS

Home | Current Version | Previous Version | Graphics & Text | Print | Product List | Glossary On
Versions: 1 2 3 4 5 6 7 8 9 10 11 12 13 14 15 16 17 18 19 20 21 22 23 24 25 26 27 28 29 30 31 32 33 34 35 36 37 38 39 40 41 42 43 44 45 46 47 48 49 50
000
ASUS45 KABQ 310110
RWRNM
NEW MEXICO REGIONAL WEATHER ROUNDUP
NATIONAL WEATHER SERVICE ALBUQUERQUE NM
700 PM MDT SUN AUG 30 2015

NOTE: "FAIR" MEANS FEW OR NO CLOUDS BELOW 12,000 FEET AGL WITH NO
       SIGNIFICANT WEATHER OR OBSTRUCTIONS TO VISION.

      THIS PRODUCT IS RELEASED AS TWO VERSIONS.  ONE VERSION NEAR
      THE TOP OF THE HOUR CONTAINING PRELIMINARY DATA FROM ALBUQUERQUE
      AND OTHER STATIONS.  A FINAL VERSION WITH ADDITIONAL DATA IS
      ISSUED ABOUT 10 MINUTES AFTER THE HOUR.

NMZ501-503-504-510>518-310200-
NORTHWEST PLATEAU/NORTHCENTRAL MOUNTAINS

CITY           SKY/WX    TMP DP  RH WIND       PRES   REMARKS
FARMINGTON     CLEAR     77  47  34 W15G22    30.09R
LOS ALAMOS     CLEAR     77  41  27 S6        30.22S
SANTA FE       CLEAR     81  43  26 SW7       30.13F
TAOS           CLEAR     81  37  21 W10       30.20F
ANGEL FIRE     FAIR      67  48  49 S5        30.32S

$$
NMZ402-403-502-505>509-310200-
WESTCENTRAL MOUNTAINS/SOUTHWEST MOUNTAINS

CITY           SKY/WX    TMP DP  RH WIND       PRES   REMARKS
GALLUP         CLOUDY    65  53  65 E15       30.25R THUNDER
GRANTS         LGT RAIN  71  47  42 SW13G18   30.20S
SILVER CITY      N/A     81  50  34 N9        30.14S

$$
NMZ407-409-411-412-310200-
SOUTHERN DESERTS

CITY           SKY/WX    TMP DP  RH WIND       PRES   REMARKS
DEMING         PTCLDY    89  48  24 SW8       30.02F
LAS CRUCES     CLEAR     88  44  21 S6        30.04F
HOLLOMAN AFB   PTCLDY    90  50  25 N8        29.99F
ALAMOGORDO     MOCLDY    90  50  25 S5        30.01F
T OR C         FAIR      88  47  24 W10       30.04F

$$
NMZ519>523-310200-
CENTRAL VALLEYS/CENTRAL HIGHLANDS

CITY           SKY/WX    TMP DP  RH WIND       PRES   REMARKS
ALBUQUERQUE    PTCLDY    89  41  18 SW7       30.06F
DOUBLE EAGLE   PTCLDY    86  45  23 SE8       30.11F
MORIARTY ARPT  FAIR      82  42  23 W3        30.16S
CLINES CORNERS PTCLDY    76  45  33 SE9       30.21F
BELEN          FAIR      87  38  17 S5        30.05F
SOCORRO        FAIR      89  40  18 SW9       30.03F

$$
NMZ524>526-539-540-310200-
SOUTHCENTRAL MOUNTAINS

CITY           SKY/WX    TMP DP  RH WIND       PRES   REMARKS
RUIDOSO        PTCLDY    73  48  40 MISG      30.25S

$$
NMZ527>531-310200-
NORTHEAST HIGHLANDS/NORTHEAST PLAINS

CITY           SKY/WX    TMP DP  RH WIND       PRES   REMARKS
LAS VEGAS      CLEAR     76  49  38 S18G26    30.19S
RATON          PTCLDY    80  51  36 S20       30.11S
CLAYTON        CLEAR     79  55  43 SE12      30.06S

$$
NMZ532>537-310200-
EASTCENTRAL PLAINS

CITY           SKY/WX    TMP DP  RH WIND       PRES   REMARKS
TUCUMCARI      CLEAR     86  50  28 SW9       29.99F
CANNON AFB     CLEAR     83  44  24 SW8       30.03F
CLOVIS AIRPORT CLEAR     81  46  30 S10       30.05F

$$
NMZ028-029-538-310200-
SOUTHEAST PLAINS

CITY           SKY/WX    TMP DP  RH WIND       PRES   REMARKS
ROSWELL        CLEAR     87  46  24 S9        30.00F
ARTESIA        CLEAR     86  50  28 SE9       30.01S
CARLSBAD       CLEAR     89  46  22 SE10      29.98F
HOBBS          CLEAR     81  50  34 CALM      30.04F


$$



USA.gov is the U.S. government's official web portal to all federal, state and local government web resources and services.